Gadsden, AL

8:55 PM CDT on July 24, 2017 (GMT -0500)
Gadsden Municipal

Weather History for KGAD - November, 2011

Change the Weather History Date:

Tuesday, November 29, 2011

  Actual Average Record
Temperature  
Mean Temperature 37 °F -  
Max Temperature 39 °F 57 °F 75 °F (2001)
Min Temperature 35 °F 34 °F 16 °F (1950)
Degree Days  
Heating Degree Days 28    
Moisture  
Dew Point 33 °F    
Average Humidity 84    
Maximum Humidity 93    
Minimum Humidity 75    
Precipitation  
Precipitation 0.28 in - - ()
Sea Level Pressure  
Sea Level Pressure 29.89 in    
Wind  
Wind Speed 8 mph (WSW)    
Max Wind Speed 15 mph    
Max Gust Speed 21 mph    
Visibility 10 miles    
Events      
Averages and records for this station are not official NWS values.
T = Trace of Precipitation, MM = Missing Value Source: NWS Daily Summary

Daily Weather History Graph

Daily Weather History Graph

Search for Another Location

Airport or City:

Trip Planner

Search our weather history database for the weather conditions in past years. The results will help you decide how hot, cold, wet, or windy it might be!

Date:

Astronomy

Nov. 29, 2011 Rise Set
Actual Time 6:29 AM CST 4:35 PM CST
Civil Twilight 6:02 AM CST 5:02 PM CST
Nautical Twilight 5:31 AM CST 5:33 PM CST
Astronomical Twilight 5:01 AM CST 6:03 PM CST
Moon 10:20 AM CST (11/29) 9:22 PM CST (11/29)
Length of Visible Light 11h 00m
Length of Day
10h 05m
Waxing Crescent, 24% of the Moon is Illuminated
Nov 29
Waxing Crescent
Dec 2
First Quarter
Dec 10
Full
Dec 17
Last Quarter
Dec 24
New

Hourly Weather History & Observations

Time (CST) Temp. Windchill Dew Point Humidity Pressure Visibility Wind Dir Wind Speed Gust Speed Precip Events Conditions
12:15 AM 35.6 °F 29.2 °F 32.0 °F 87% 29.84 in 10.0 mi WSW 8.1 mph - N/A   Overcast
12:35 AM 35.6 °F 29.2 °F 32.0 °F 87% 29.84 in 9.0 mi SW 8.1 mph - N/A   Overcast
12:55 AM 35.6 °F 30.7 °F 32.0 °F 87% 29.84 in 10.0 mi SW 5.8 mph - N/A   Overcast
1:15 AM 35.6 °F 32.8 °F 32.0 °F 87% 29.83 in 9.0 mi SW 3.5 mph - N/A   Overcast
1:35 AM 35.6 °F 31.7 °F 32.0 °F 87% 29.84 in 10.0 mi SSW 4.6 mph - N/A   Overcast
1:55 AM 35.6 °F 29.9 °F 32.0 °F 87% 29.83 in 10.0 mi SSW 6.9 mph - N/A   Overcast
2:15 AM 35.6 °F 29.2 °F 32.0 °F 87% 29.83 in 10.0 mi SSW 8.1 mph - N/A   Overcast
2:35 AM 35.6 °F 31.7 °F 32.0 °F 87% 29.82 in 10.0 mi South 4.6 mph - N/A   Overcast
2:55 AM 35.6 °F 30.7 °F 32.0 °F 87% 29.82 in 10.0 mi SSW 5.8 mph - N/A   Overcast
3:15 AM 35.6 °F 30.7 °F 32.0 °F 87% 29.82 in 10.0 mi SSW 5.8 mph - N/A   Overcast
3:35 AM 35.6 °F 32.8 °F 32.0 °F 87% 29.81 in 10.0 mi SSW 3.5 mph - N/A   Overcast
3:55 AM 35.6 °F 31.7 °F 32.0 °F 87% 29.81 in 10.0 mi South 4.6 mph - N/A   Overcast
4:15 AM 35.6 °F 31.7 °F 32.0 °F 87% 29.81 in 10.0 mi SSW 4.6 mph - N/A   Overcast
4:35 AM 35.6 °F 32.8 °F 32.0 °F 87% 29.81 in 10.0 mi SSW 3.5 mph - N/A   Overcast
4:55 AM 35.6 °F 31.7 °F 32.0 °F 87% 29.81 in 10.0 mi SSW 4.6 mph - N/A   Overcast
5:15 AM 35.6 °F 31.7 °F 32.0 °F 87% 29.81 in 10.0 mi SSW 4.6 mph - N/A   Overcast
5:35 AM 35.6 °F 31.7 °F 32.0 °F 87% 29.81 in 10.0 mi SSW 4.6 mph - N/A   Overcast
5:55 AM 35.6 °F 30.7 °F 32.0 °F 87% 29.82 in 10.0 mi SW 5.8 mph - N/A   Overcast
6:35 AM 35.6 °F 32.8 °F 32.0 °F 87% 29.82 in 6.0 mi SW 3.5 mph - N/A   Overcast
6:55 AM 35.6 °F 31.7 °F 32.0 °F 87% 29.83 in 5.0 mi SSW 4.6 mph - N/A   Overcast
7:15 AM 35.6 °F 30.7 °F 32.0 °F 87% 29.83 in 9.0 mi SW 5.8 mph - N/A   Overcast
7:35 AM 35.6 °F 31.7 °F 32.0 °F 87% 29.84 in 10.0 mi SSW 4.6 mph - N/A   Overcast
7:55 AM 35.6 °F 29.2 °F 32.0 °F 87% 29.84 in 6.0 mi SW 8.1 mph - N/A   Overcast
8:15 AM 35.6 °F 30.7 °F 32.0 °F 87% 29.85 in 10.0 mi SW 5.8 mph - N/A   Overcast
8:35 AM 35.6 °F 30.7 °F 32.0 °F 87% 29.85 in 10.0 mi SW 5.8 mph - N/A   Overcast
8:55 AM 35.6 °F 29.9 °F 33.8 °F 93% 29.85 in 10.0 mi WSW 6.9 mph - N/A   Overcast
9:15 AM 37.4 °F 32.1 °F 33.8 °F 87% 29.85 in 10.0 mi SW 6.9 mph - N/A   Overcast
9:35 AM 37.4 °F 29.8 °F 33.8 °F 87% 29.86 in 10.0 mi WSW 11.5 mph - N/A   Overcast
9:55 AM 37.4 °F 31.4 °F 33.8 °F 87% 29.87 in 10.0 mi SW 8.1 mph - 0.28 in   Overcast
10:35 AM 37.4 °F 29.8 °F 33.8 °F 87% 29.87 in 10.0 mi WSW 11.5 mph - N/A   Overcast
10:55 AM 37.4 °F 30.3 °F 33.8 °F 87% 29.87 in 9.0 mi SW 10.4 mph - N/A   Overcast
11:15 AM 37.4 °F 29.8 °F 33.8 °F 87% 29.87 in 10.0 mi WSW 11.5 mph - N/A   Mostly Cloudy
11:35 AM 37.4 °F 29.8 °F 33.8 °F 87% 29.87 in 10.0 mi WSW 11.5 mph - N/A   Overcast
11:55 AM 37.4 °F 30.8 °F 33.8 °F 87% 29.87 in 10.0 mi West 9.2 mph 16.1 mph N/A   Overcast
12:35 PM 39.2 °F 31.2 °F 33.8 °F 81% 29.87 in 10.0 mi WSW 13.8 mph - N/A   Overcast
12:55 PM 39.2 °F 31.2 °F 32.0 °F 75% 29.88 in 10.0 mi WSW 13.8 mph 18.4 mph N/A   Overcast
1:55 PM 39.2 °F 30.8 °F 33.8 °F 81% 29.88 in 10.0 mi WSW 15.0 mph - N/A   Overcast
2:15 PM 39.2 °F 32.0 °F 33.8 °F 81% 29.90 in 10.0 mi WSW 11.5 mph 17.3 mph N/A   Overcast
2:35 PM 39.2 °F 32.5 °F 32.0 °F 75% 29.91 in 10.0 mi WSW 10.4 mph - N/A   Overcast
2:55 PM 39.2 °F 31.2 °F 33.8 °F 81% 29.92 in 10.0 mi West 13.8 mph 18.4 mph N/A   Overcast
3:15 PM 39.2 °F 30.8 °F 33.8 °F 81% 29.92 in 10.0 mi WSW 15.0 mph - N/A   Overcast
3:35 PM 39.2 °F 31.6 °F 32.0 °F 75% 29.93 in 10.0 mi West 12.7 mph - N/A   Overcast
3:55 PM 39.2 °F 30.8 °F 33.8 °F 81% 29.94 in 10.0 mi West 15.0 mph - N/A   Overcast
4:15 PM 39.2 °F 30.8 °F 33.8 °F 81% 29.95 in 10.0 mi West 15.0 mph 20.7 mph N/A   Overcast
4:35 PM 39.2 °F 31.6 °F 32.0 °F 75% 29.96 in 10.0 mi West 12.7 mph - N/A   Overcast
4:55 PM 39.2 °F 35.0 °F 33.8 °F 81% 29.97 in 10.0 mi West 5.8 mph - N/A   Overcast
5:15 PM 39.2 °F 33.6 °F 33.8 °F 81% 29.98 in 10.0 mi West 8.1 mph - N/A   Overcast
5:35 PM 39.2 °F 32.0 °F 32.0 °F 75% 29.99 in 10.0 mi West 11.5 mph - N/A   Overcast
5:55 PM 37.4 °F 29.8 °F 33.8 °F 87% 30.00 in 10.0 mi West 11.5 mph 16.1 mph N/A   Overcast
6:15 PM 37.4 °F 30.8 °F 32.0 °F 81% 30.01 in 10.0 mi West 9.2 mph - N/A   Overcast
6:35 PM 37.4 °F 30.8 °F 32.0 °F 81% 30.02 in 10.0 mi West 9.2 mph 17.3 mph N/A   Overcast
6:55 PM 37.4 °F 30.3 °F 32.0 °F 81% 30.03 in 10.0 mi West 10.4 mph - N/A   Overcast
7:35 PM 37.4 °F 30.8 °F 30.2 °F 75% 30.04 in 10.0 mi West 9.2 mph 16.1 mph N/A   Overcast
7:55 PM 37.4 °F 30.3 °F 32.0 °F 81% 30.05 in 10.0 mi West 10.4 mph - N/A   Overcast
8:15 PM 37.4 °F 30.3 °F 30.2 °F 75% 30.05 in 10.0 mi WNW 10.4 mph 19.6 mph N/A   Overcast
8:35 PM 37.4 °F 30.8 °F 30.2 °F 75% 30.06 in 10.0 mi WNW 9.2 mph - N/A   Overcast
8:55 PM 37.4 °F 30.3 °F 32.0 °F 81% 30.06 in 10.0 mi WNW 10.4 mph - N/A   Overcast
9:15 PM 37.4 °F 32.1 °F 30.2 °F 75% 30.06 in 10.0 mi WNW 6.9 mph 16.1 mph N/A   Overcast
9:35 PM 37.4 °F 30.3 °F 30.2 °F 75% 30.06 in 10.0 mi WNW 10.4 mph - N/A   Overcast
9:55 PM 37.4 °F 30.3 °F 30.2 °F 75% 30.06 in 10.0 mi WNW 10.4 mph - N/A   Overcast
10:15 PM 37.4 °F 30.8 °F 30.2 °F 75% 30.06 in 10.0 mi WNW 9.2 mph - N/A   Overcast
10:35 PM 37.4 °F 31.4 °F 30.2 °F 75% 30.06 in 10.0 mi WNW 8.1 mph - N/A   Overcast
10:55 PM 37.4 °F 32.1 °F 30.2 °F 75% 30.06 in 10.0 mi WNW 6.9 mph - N/A   Overcast
11:15 PM 37.4 °F 32.1 °F 30.2 °F 75% 30.06 in 10.0 mi West 6.9 mph - N/A   Overcast
11:35 PM 37.4 °F 32.1 °F 30.2 °F 75% 30.06 in 10.0 mi West 6.9 mph - N/A   Overcast
11:55 PM 37.4 °F 32.8 °F 32.0 °F 81% 30.07 in 10.0 mi West 5.8 mph - N/A   Overcast